Weather History for LEMG - November, 2011

Change the Weather History Date:

Thursday, November 17, 2011

  Actual Average Record
Temperature  
Mean Temperature 58 °F -  
Max Temperature 68 °F 62 °F 73 °F (1997)
Min Temperature 48 °F 48 °F 37 °F (1999)
Degree Days  
Heating Degree Days 7    
Growing Degree Days 8 (Base 50)    
Moisture  
Dew Point 49 °F    
Average Humidity 77    
Maximum Humidity 88    
Minimum Humidity 55    
Precipitation  
Precipitation 0.00 in 0.14 in - ()
Sea Level Pressure  
Sea Level Pressure 30.14 in    
Wind  
Wind Speed 5 mph ()    
Max Wind Speed 12 mph    
Max Gust Speed -    
Visibility 7.0 miles    
Events      
Averages and records for this station are not official NWS values.
T = Trace of Precipitation, MM = Missing Value Source: Averaged Metar Reports

Daily Weather History Graph

Daily Weather History Graph

Search for Another Location

Airport or City:

Trip Planner

Search our weather history database for the weather conditions in past years. The results will help you decide how hot, cold, wet, or windy it might be!

Date:

Astronomy

Nov. 17, 2011 Rise Set
Actual Time 7:57 AM CET 6:07 PM CET
Civil Twilight 7:29 AM CET 6:35 PM CET
Nautical Twilight 6:58 AM CET 7:06 PM CET
Astronomical Twilight 6:27 AM CET 7:37 PM CET
Moon No Moon Rise 1:01 PM CET (11/17)
Length of Visible Light 11h 05m
Length of Day
10h 10m
Waning Gibbous, 62% of the Moon is Illuminated
Nov 17
Waning Gibbous
Nov 18
Last Quarter
Nov 25
New
Dec 2
First Quarter
Dec 10
Full

Hourly Weather History & Observations

Time (CET) Temp. Dew Point Humidity Pressure Visibility Wind Dir Wind Speed Gust Speed Precip Events Conditions
12:00 AM 53.6 °F 48.2 °F 82% 30.09 in - WNW 3.5 mph - N/A   Clear
12:30 AM 55.4 °F 48.2 °F 77% 30.12 in - West 5.8 mph - N/A   Clear
1:00 AM 55 °F 48 °F 70% 30.14 in 12 mi West 5.8 mph - -   Clear
1:00 AM 53.6 °F 48.2 °F 82% 30.12 in - West 5.8 mph - N/A   Clear
1:30 AM 55.4 °F 48.2 °F 77% 30.12 in 6.2 mi West 6.9 mph - N/A   Partly Cloudy
2:00 AM 53.6 °F 46.4 °F 77% 30.12 in 6.2 mi WNW 6.9 mph - N/A   Partly Cloudy
2:30 AM 51.8 °F 46.4 °F 82% 30.12 in 6.2 mi WNW 4.6 mph - N/A   Partly Cloudy
3:00 AM 51.8 °F 46.4 °F 82% 30.12 in 6.2 mi WNW 8.1 mph - N/A   Partly Cloudy
3:30 AM 50.0 °F 46.4 °F 87% 30.12 in 6.2 mi WNW 4.6 mph - N/A   Partly Cloudy
4:00 AM 50.0 °F 46.4 °F 87% 30.12 in 6.2 mi WNW 5.8 mph - N/A   Partly Cloudy
4:30 AM 50.0 °F 46.4 °F 87% 30.09 in 6.2 mi WNW 8.1 mph - N/A   Partly Cloudy
5:00 AM 50.0 °F 46.4 °F 87% 30.12 in 6.2 mi WNW 5.8 mph - N/A   Partly Cloudy
5:30 AM 50.0 °F 46.4 °F 87% 30.12 in 6.2 mi NW 6.9 mph - N/A   Scattered Clouds
6:00 AM 50.0 °F 46.4 °F 87% 30.12 in 6.2 mi WNW 5.8 mph - N/A   Scattered Clouds
6:30 AM 48.2 °F 44.6 °F 87% 30.12 in 6.2 mi WNW 9.2 mph - N/A   Partly Cloudy
7:00 AM 50 °F 45 °F 76% 30.15 in 12 mi WNW 11.5 mph - -   Scattered Clouds
7:00 AM 50.0 °F 44.6 °F 82% 30.12 in 6.2 mi WNW 11.5 mph - N/A   Partly Cloudy
7:30 AM 48.2 °F 44.6 °F 87% 30.12 in 6.2 mi WNW 10.4 mph - N/A   Partly Cloudy
8:00 AM 48.2 °F 44.6 °F 87% 30.12 in 6.2 mi WNW 9.2 mph - N/A   Partly Cloudy
8:30 AM 48.2 °F 44.6 °F 87% 30.15 in 6.2 mi NW 4.6 mph - N/A   Partly Cloudy
9:00 AM 50.0 °F 46.4 °F 87% 30.15 in 6.2 mi WNW 8.1 mph - N/A   Partly Cloudy
9:30 AM 51.8 °F 46.4 °F 82% 30.15 in 6.2 mi WNW 6.9 mph - N/A   Partly Cloudy
10:00 AM 51.8 °F 48.2 °F 88% 30.18 in 6.2 mi NW 5.8 mph - N/A   Partly Cloudy
10:30 AM 53.6 °F 48.2 °F 82% 30.18 in 6.2 mi NW 4.6 mph - N/A   Scattered Clouds
11:00 AM 57.2 °F 50.0 °F 77% 30.18 in 6.2 mi NW 4.6 mph - N/A   Partly Cloudy
11:30 AM 60.8 °F 50.0 °F 68% 30.18 in 6.2 mi WNW 5.8 mph - N/A   Partly Cloudy
12:00 PM 62.6 °F 50.0 °F 63% 30.18 in 6.2 mi Variable 1.2 mph - N/A   Partly Cloudy
12:30 PM 64.4 °F 51.8 °F 64% 30.15 in 6.2 mi Calm Calm - N/A   Partly Cloudy
1:00 PM 65 °F 53 °F 55% 30.19 in 19 mi East 5.8 mph - -   Scattered Clouds
1:00 PM 64.4 °F 53.6 °F 68% 30.15 in 6.2 mi East 5.8 mph - N/A   Partly Cloudy
1:30 PM 64.4 °F 53.6 °F 68% 30.15 in 6.2 mi ESE 5.8 mph - N/A   Partly Cloudy
2:00 PM 64.4 °F 53.6 °F 68% 30.15 in 6.2 mi SE 3.5 mph - N/A   Partly Cloudy
2:30 PM 64.4 °F 53.6 °F 68% 30.12 in 6.2 mi ESE 5.8 mph - N/A   Partly Cloudy
3:00 PM 64.4 °F 53.6 °F 68% 30.12 in 6.2 mi ESE 5.8 mph - N/A   Partly Cloudy
3:30 PM 64.4 °F 53.6 °F 68% 30.12 in 6.2 mi ESE 4.6 mph - N/A   Partly Cloudy
4:00 PM 64.4 °F 51.8 °F 64% 30.12 in 6.2 mi ESE 4.6 mph - N/A   Partly Cloudy
4:30 PM 64.4 °F 53.6 °F 68% 30.12 in 6.2 mi Variable 2.3 mph - N/A   Partly Cloudy
5:00 PM 64.4 °F 51.8 °F 64% 30.12 in 6.2 mi Variable 2.3 mph - N/A   Partly Cloudy
5:30 PM 64.4 °F 51.8 °F 64% 30.12 in 6.2 mi Variable 1.2 mph - N/A   Partly Cloudy
6:00 PM 62.6 °F 51.8 °F 68% 30.12 in 6.2 mi Calm Calm - N/A   Partly Cloudy
6:30 PM 60.8 °F 51.8 °F 72% 30.12 in 6.2 mi Calm Calm - N/A   Partly Cloudy
7:00 PM 59 °F 53 °F 73% 30.16 in 19 mi 1.2 mph - -   Scattered Clouds
7:00 PM 59.0 °F 51.8 °F 77% 30.12 in 6.2 mi Variable 1.2 mph - N/A   Partly Cloudy
7:30 PM 59.0 °F 51.8 °F 77% 30.15 in 6.2 mi Variable 1.2 mph - N/A   Partly Cloudy
8:00 PM 57.2 °F 50.0 °F 77% 30.12 in 6.2 mi Calm Calm - N/A   Partly Cloudy
8:30 PM 57.2 °F 50.0 °F 77% 30.15 in 6.2 mi WNW 3.5 mph - N/A   Scattered Clouds
9:00 PM 57.2 °F 51.8 °F 82% 30.15 in 6.2 mi Variable 2.3 mph - N/A   Scattered Clouds
9:30 PM 57.2 °F 51.8 °F 82% 30.15 in 6.2 mi WNW 4.6 mph - N/A   Scattered Clouds
10:00 PM 55.4 °F 51.8 °F 88% 30.15 in 6.2 mi WNW 3.5 mph - N/A   Partly Cloudy
10:30 PM 55.4 °F 51.8 °F 88% 30.15 in 6.2 mi WNW 2.3 mph - N/A   Scattered Clouds
11:00 PM 55.4 °F 51.8 °F 88% 30.15 in 6.2 mi NW 3.5 mph - N/A   Scattered Clouds
11:30 PM 55.4 °F 51.8 °F 88% 30.12 in 6.2 mi WNW 5.8 mph - N/A   Scattered Clouds